Location: Blythe
(33.2930°N, 82.2020°W)
Time: 05:44:13
(UTC-04:00)

HST - Visible Passes

Search period start: 01 November 2014 00:00
Search period end: 10 November 2014 23:00
Orbit: 546 x 550 km, 28.5° (Epoch: 31 October)

Date Brightness Start Highest point End Pass type
(mag) Time Alt. Az. Time Alt. Az. Time Alt. Az.
01 Nov 1.9 19:57:00 10° WSW 20:00:52 36° S 20:02:40 24° SE visible
02 Nov 2.2 18:49:43 10° WSW 18:53:28 32° SSW 18:55:54 18° SE visible
03 Nov 2.5 18:42:28 10° WSW 18:46:03 28° SSW 18:49:13 12° SE visible
04 Nov 2.8 18:35:16 10° WSW 18:38:37 23° SSW 18:41:58 10° SE visible
05 Nov 3.1 18:28:09 10° WSW 18:31:10 19° SSW 18:34:10 10° SSE visible
06 Nov 3.4 18:21:11 10° WSW 18:23:41 15° SSW 18:26:11 10° SSE visible
07 Nov 3.6 18:14:34 10° SW 18:16:11 12° SSW 18:17:49 10° S visible
